User: anonymous   Login
Location: Unspecified
(0.0000°N, 0.0000°E)
Time: 08:46:01
(UTC+02:00)
Language:

Cosmos 773 Rocket - Orbit

View from above orbital plane
View from above orbital plane
View from above satellite
View from above satellite

Ground track
Ground track

The orbit data is extracted from the following two-line orbital elements,

1 08344U 75094B   15242.45902873  .00000025  00000-0  16574-4 0  9990
2 08344 074.0556 255.6606 0022832 319.2020 040.7424 14.38987870 91211
Epoch (UTC): 30 August 2015 11:01:00
Eccentricity: 0.0022832
inclination: 74.0556°
perigee height: 745 km
apogee height: 778 km
right ascension of ascending node: 255.6606°
argument of perigee: 319.2020°
revolutions per day: 14.38987870
mean anomaly at epoch: 40.7424°
orbit number at epoch: 9121

The dashed part of the orbit path shows where the satellite is in the earth's shadow,  

DLR